RADUGA-1 8 [-]

Last updated on Nov. 12, 2019, 4:19 a.m. UTC

1 34264U 09010A   19315.53054318  .00000077  00000-0  00000+0 0  9990
2 34264   7.4017  61.1619 0012897 325.2158  50.3512  0.99827827 39119
UTC
Height (km)
Latitude
Longitude
Inclination
Orbital Period
UTC large
Height (km)
Speed (km/s)
/
Latitude / Longitude
Inclination (degrees)
Orbital Period (minutes)
Azimuth
Elevation
Range (km)
Doppler Factor
iOS Compass Heading
iOS Angle

Next 30 passes for location: Hong Kong

Rise time Rise Azimuth (degrees) Set time Set Azimuth (degrees) Duration Max altitude (degrees)

No matching passes for this satellites